Content
SEND FEEDBACK

Daily
Averages
Monthly
Summary
United States of America

INARAJAN, GUAM


Home > North America > United States > Guam
Elevation: 280 feet     Latitude: 13 18N     Longitude: 144 44E

WEATHER
 
SELECT A DAY
Number of Records: 342,166;   Date Range: 1/1/95 - 8/12/14
 
SHARE

PRINT THIS DATA

[ ← Previous Day ]
WEATHER ALMANAC - APRIL 7, 2014
[ Next Day → ]
[ °C ]   °F
Weather ElementAverageHighLow
Temperature80.6 °F84.9 °F (10:58 am)77.5 °F (1:58 am)
Dewpoint73 °F74.1 °F (11:58 am)71.6 °F (7:53 pm)
Humidity77.6 %86 % (3:58 am)68 % (1:58 pm)
Barometer29.86 in29.91 in (7:58 am)29.81 in (2:58 pm)
Wind Speed12.4 mph15 mph (7:58 am)
Wind Gust20.7 mph (11:58 am)
Weather ElementAverage
Visibility10 mi
Wind DirectionENE (69.7 °)

Weather ElementTotal
Precipitation---
Cooling Degree Days16.2 (Base 65)
Growing Degree Days31.2 (Base 50)
Averaged from 35 records on April 7, 2014
WEATHER CONDITIONS BREAKOUT
WIND DIRECTION BREAKOUT
WEATHER BY HOUR - APRIL 7, 2014
[ °C ]   °F
Local TimeTemperatureDewpointHumidityBarometerVisibilityWind DirectionWind SpeedGust SpeedPrecipitationEventsConditions
1:58 AM77.5 °F72.1 °F83 %29.88 in10.0 miENE (60°)11.5 mphClear
2:58 AM77.7 °F72.5 °F84 %29.86 in10.0 miENE (60°)9.2 mphPartly Cloudy
3:58 AM77.5 °F73.0 °F86 %29.86 in10.0 miENE (60°)9.2 mphScattered Clouds
4:58 AM77.7 °F72.9 °F85 %29.86 in10.0 miENE (60°)10.4 mphScattered Clouds
5:58 AM77.5 °F72.0 °F83 %29.86 in10.0 miENE (70°)12.7 mphPartly Cloudy
6:58 AM79.2 °F72.0 °F78 %29.88 in10.0 miENE (60°)9.2 mphPartly Cloudy
7:58 AM80.6 °F72.7 °F77 %29.91 in10.0 miENE (60°)15.0 mphScattered Clouds
8:58 AM81.9 °F73.2 °F75 %29.91 in10.0 miENE (60°)15.0 mphPartly Cloudy
9:58 AM83.7 °F73.9 °F72 %29.91 in10.0 miENE (60°)12.7 mphScattered Clouds
10:58 AM84.9 °F73.9 °F69 %29.89 in10.0 miNE (40°)15.0 mphScattered Clouds
11:58 AM84.0 °F74.1 °F72 %29.87 in10.0 miENE (60°)11.5 mph20.7 mphScattered Clouds
12:23 PM84.2 °F73.4 °F70 %29.89 in10.0 miENE (70°)15.0 mphMostly Cloudy
12:58 PM84.4 °F73.9 °F71 %29.84 in10.0 miEast (80°)11.5 mphScattered Clouds
1:23 PM84.2 °F73.4 °F70 %29.86 in10.0 miEast (80°)12.7 mphMostly Cloudy
1:28 PM82.4 °F73.4 °F74 %29.86 in10.0 miEast (80°)12.7 mphMostly Cloudy
1:33 PM84.2 °F73.4 °F70 %29.86 in10.0 miEast (80°)12.7 mphScattered Clouds
1:58 PM84.9 °F73.4 °F68 %29.83 in10.0 miEast (90°)12.7 mphScattered Clouds
2:58 PM83.7 °F72.5 °F69 %29.81 in10.0 miEast (100°)12.7 mph18.4 mphClear
3:58 PM83.1 °F73.8 °F73 %29.81 in10.0 miEast (90°)12.7 mphClear
4:28 PM80.6 °F73.4 °F79 %29.84 in10.0 miEast (80°)13.8 mphScattered Clouds
4:58 PM80.8 °F72.1 °F75 %29.82 in10.0 miENE (70°)11.5 mphScattered Clouds
5:33 PM80.6 °F73.4 °F79 %29.86 in10.0 miENE (70°)10.4 mphMostly Cloudy
5:38 PM80.6 °F73.4 °F79 %29.86 in10.0 miENE (60°)12.7 mphScattered Clouds
5:58 PM80.2 °F72.5 °F77 %29.83 in10.0 miENE (60°)15.0 mphScattered Clouds
6:58 PM79.2 °F72.1 °F79 %29.84 in10.0 miENE (70°)12.7 mphPartly Cloudy
7:43 PM78.8 °F73.4 °F83 %29.88 in10.0 miENE (60°)13.8 mphMostly Cloudy
7:48 PM78.8 °F73.4 °F83 %29.88 in10.0 miENE (70°)11.5 mphMostly Cloudy
7:53 PM78.8 °F71.6 °F78 %29.88 in10.0 miENE (70°)11.5 mphScattered Clouds
7:58 PM78.6 °F72.7 °F82 %29.86 in10.0 miENE (70°)12.7 mphScattered Clouds
8:28 PM78.8 °F73.4 °F83 %29.88 in10.0 miENE (70°)11.5 mphMostly Cloudy
8:33 PM78.8 °F73.4 °F83 %29.88 in10.0 miENE (70°)12.7 mphScattered Clouds
8:58 PM78.6 °F73.0 °F83 %29.86 in10.0 miENE (70°)13.8 mphPartly Cloudy
9:58 PM78.8 °F72.5 °F81 %29.87 in10.0 miEast (80°)11.5 mphScattered Clouds
10:58 PM78.4 °F72.7 °F82 %29.87 in10.0 miENE (70°)13.8 mphPartly Cloudy
11:58 PM78.6 °F72.3 °F81 %29.86 in10.0 miEast (80°)12.7 mphPartly Cloudy
Hourly data recorded from PGUA, located miles away from Inarajan, Guam







STORIES FROM OUR PARTNERS